Zurück zum Katalog

SESAT 2

EXPRESS AM-22

AktivKommunikationGEO
NORAD 28134·PAYLOAD·🇪🇺 EU

Gestartet Dec 28, 2003 von Baikonur Cosmodrome

Loading…

TLE

AktuellSource: Space-Track

Epoche: Sep 14, 2026, 06:51 UTC

1 28134U 03060A   26257.28565102 -.00000250  00000-0  00000-0 0  9996
2 28134   8.4900  63.0582 0013208 140.3263 230.8707  0.99364735 82922

Verfolge SESAT 2 in Echtzeit mit AllMySat

Download on the App Store